Flag for Canada Weather past 2 weeks in Miramichi, New Brunswick, Canada

39 °F

Passing clouds.

Feels Like: 29 °F
Forecast: 32 / 45 °F
Wind: 20 mph from Northwest

Location: Bathurst Airport

Current Time: Oct 10, 2015 at 10:08:25 AM

Latest Report: Oct 10, 2015 at 9:00 AM

Visibility: 15 mi

Pressure: 29.72 "Hg

Humidity: 65%

Dew point: 28 °F

Location of MiramichiLocation

Historic Weather in Miramichi — Graph


Miramichi temperature yesterday

Maximum temperature yesterday: 48 °F (at 2:00 PM)
Minimum temperature yesterday: 28 °F (at 7:00 AM)
Average temperature yesterday: 41 °F

Past Weeks' High & Low Weather Summary

High79 °F (Sep 28, 3:00 PM)100% (Sep 30, 6:00 AM)30.62 "Hg (Sep 30, 6:00 AM)
Low28 °F (Oct 9, 7:00 AM)25% (Sep 26, 4:00 PM)29.54 "Hg (Oct 10, 3:00 AM)
Average50 °F73%30.15 "Hg
* Reported Sep 25 9:00 AM — Oct 10 9:00 AM, Miramichi, Weather by CustomWeather, © 2015

Note: Actual official high and low records may vary slightly from our data, if they occured in-between our weather recording intervals... More about our weather records


Miramichi weather history for previous 24 hours

Time TempWeatherWind HumidityBarometerVisibility
9:00 AM
Sat, Oct 10
39 °FPassing clouds.20 mph65%29.72 "Hg15 mi
8:00 AM39 °FPassing clouds.14 mph75%29.66 "Hg15 mi
7:00 AM39 °FPassing clouds.14 mph81%29.63 "Hg15 mi
6:00 AM39 °FPassing clouds.14 mph81%29.61 "Hg15 mi
5:00 AM39 °FPassing clouds.13 mph87%29.58 "Hg15 mi
4:00 AM41 °FPassing clouds.10 mph93%29.55 "Hg15 mi
3:52 AM41 °FPassing clouds.12 mph93%29.55 "Hg15 mi
3:00 AM41 °FPassing clouds.6 mph93%29.54 "Hg12 mi
2:00 AM41 °FDrizzle. Low clouds.7 mph100%29.55 "Hg12 mi
1:00 AM41 °FLight rain. Mostly cloudy.2 mph100%29.56 "Hg8 mi
12:00 AM41 °FRain. Low clouds.No wind100%29.61 "Hg8 mi
11:54 PM
Fri, Oct 9
41 °FRain. Low clouds.2 mph100%29.62 "Hg8 mi
11:00 PM41 °FLight rain. Low clouds.3 mph93%29.66 "Hg8 mi
10:00 PM41 °FLight rain. Mostly cloudy.3 mph93%29.72 "Hg12 mi
9:00 PM41 °FLight rain. Mostly cloudy.3 mph93%29.75 "Hg12 mi
8:00 PM41 °FQuite cool.2 mph93%29.81 "Hg12 mi
7:00 PM41 °FLight rain. Overcast.3 mph87%29.84 "Hg10 mi
6:00 PM43 °FLight rain. Overcast.7 mph71%29.86 "Hg10 mi
5:54 PM45 °FLight rain. Overcast.5 mph66%29.86 "Hg12 mi
5:00 PM46 °FOvercast.6 mph50%29.88 "Hg15 mi
4:00 PM48 °FOvercast.8 mph54%29.91 "Hg15 mi
3:00 PM48 °FOvercast.6 mph58%29.95 "Hg15 mi
2:00 PM48 °FOvercast.6 mph54%29.98 "Hg15 mi
1:00 PM46 °FOvercast.3 mph62%30.02 "Hg15 mi
12:00 PM45 °FOvercast.3 mph66%30.04 "Hg15 mi
11:00 AM43 °FMore clouds than sun.3 mph71%30.07 "Hg15 mi
10:00 AM43 °FOvercast.3 mph71%30.08 "Hg15 mi
Weather by CustomWeather, © 2015

See weather overviewHow to use our weather pages